Weather History for Jacksonville, IL

Change the Weather History Date:

Friday, May 2, 2014

  Actual Average (KSPI) Record (KSPI)
Temperature  
Mean Temperature 53 °F 59 °F  
Max Temperature 60 °F 71 °F 89 °F (1959)
Min Temperature 46 °F 48 °F 32 °F (1966)
Degree Days  
Heating Degree Days 12 7  
Month to date heating degree days 14  
Since 1 July heating degree days 5359  
Cooling Degree Days 0 1  
Month to date cooling degree days 2  
Year to date cooling degree days 22  
Growing Degree Days 3 (Base 50)    
Moisture  
Dew Point 41 °F    
Average Humidity 67    
Maximum Humidity 83    
Minimum Humidity 51    
Precipitation  
Precipitation 0.00 in 0.13 in 1.55 in (1892)
Month to date precipitation 0.26  
Year to date precipitation 10.03  
Snow  
Snow 0.00 in 0.00 in 0.60 in (1929)
Month to date snowfall 0.0  
Since 1 July snowfall 20.9  
Snow Depth -    
Sea Level Pressure  
Sea Level Pressure 29.88 in    
Wind  
Wind Speed 9 mph (SW)    
Max Wind Speed 17 mph    
Max Gust Speed 22 mph    
Visibility 10 miles    
Events      
T = Trace of Precipitation, MM = Missing Value Source: NWS Daily Summary

Daily Weather History Graph

Daily Weather History Graph

Search for Another Location

Airport:

Trip Planner

Search our weather history database for the weather conditions in past years. The results will help you decide how hot, cold, wet, or windy it might be!

Date:

Astronomy

May. 02, 2014 Rise Set
Actual Time 6:00 AM CDT 7:56 PM CDT
Civil Twilight 5:30 AM CDT 8:25 PM CDT
Nautical Twilight 4:55 AM CDT 9:01 PM CDT
Astronomical Twilight 4:16 AM CDT 9:40 PM CDT
Moon 8:37 AM CDT (5/2) 11:18 PM CDT (5/2)
Length of Visible Light 14h 54m
Length of Day
13h 56m
Waxing Crescent, 12% of the Moon is Illuminated
May 2
Waxing Crescent
May 6
First Quarter
May 14
Full
May 21
Last Quarter
May 28
New

Hourly Weather History & Observations

Time (CDT) Temp. Windchill Dew Point Humidity Pressure Visibility Wind Dir Wind Speed Gust Speed Precip Events Conditions
12:15 AM 47.7 °F - 40.8 °F 77% 29.94 in 10.0 mi West 9.2 mph - N/A   Overcast
12:35 AM 47.7 °F - 40.5 °F 76% 29.94 in 10.0 mi West 6.9 mph - N/A   Overcast
12:55 AM 47.5 °F - 40.8 °F 78% 29.94 in 10.0 mi WSW 5.8 mph - N/A   Overcast
1:15 AM 47.7 °F - 40.6 °F 77% 29.94 in 10.0 mi West 6.9 mph - N/A   Overcast
1:35 AM 47.5 °F - 40.6 °F 77% 29.93 in 10.0 mi WSW 8.1 mph - N/A   Overcast
1:55 AM 47.3 °F - 40.6 °F 78% 29.93 in 10.0 mi West 8.1 mph - N/A   Overcast
2:15 AM 47.3 °F - 40.5 °F 77% 29.92 in 10.0 mi WSW 6.9 mph - N/A   Overcast
2:35 AM 47.3 °F - 40.8 °F 78% 29.92 in 10.0 mi WSW 6.9 mph - N/A   Overcast
2:55 AM 46.9 °F - 40.8 °F 79% 29.92 in 10.0 mi WSW 6.9 mph - N/A   Overcast
3:15 AM 46.9 °F - 41.0 °F 80% 29.92 in 10.0 mi WSW 8.1 mph - N/A   Overcast
3:35 AM 46.4 °F 42.4 °F 40.6 °F 80% 29.92 in 10.0 mi WSW 8.1 mph - N/A   Overcast
3:55 AM 46.4 °F 43.5 °F 40.8 °F 81% 29.91 in 10.0 mi WSW 5.8 mph - N/A   Overcast
4:15 AM 46.2 °F 43.3 °F 41.0 °F 82% 29.91 in 10.0 mi WSW 5.8 mph - N/A   Overcast
4:35 AM 46.4 °F 43.5 °F 41.0 °F 81% 29.91 in 10.0 mi WSW 5.8 mph - N/A   Overcast
4:55 AM 46.4 °F 43.5 °F 41.2 °F 82% 29.91 in 10.0 mi WSW 5.8 mph - N/A   Overcast
5:15 AM 46.0 °F 43.1 °F 41.2 °F 83% 29.91 in 10.0 mi WSW 5.8 mph - N/A   Overcast
5:35 AM 46.0 °F 42.5 °F 41.2 °F 83% 29.91 in 10.0 mi WSW 6.9 mph - N/A   Overcast
5:55 AM 46.0 °F 43.1 °F 41.2 °F 83% 29.91 in 10.0 mi WSW 5.8 mph - N/A   Overcast
6:15 AM 46.2 °F 42.7 °F 41.2 °F 83% 29.91 in 10.0 mi WSW 6.9 mph - N/A   Overcast
6:35 AM 46.2 °F 43.3 °F 41.2 °F 83% 29.91 in 10.0 mi WSW 5.8 mph - N/A   Overcast
6:55 AM 46.4 °F 43.5 °F 41.4 °F 83% 29.92 in 10.0 mi WSW 5.8 mph - N/A   Overcast
7:15 AM 46.6 °F - 41.5 °F 83% 29.91 in 10.0 mi WSW 6.9 mph - N/A   Overcast
7:35 AM 46.9 °F - 41.9 °F 83% 29.92 in 10.0 mi WSW 5.8 mph - N/A   Overcast
7:55 AM 47.5 °F - 41.9 °F 81% 29.92 in 10.0 mi WSW 9.2 mph - N/A   Overcast
8:15 AM 48.2 °F - 42.1 °F 79% 29.93 in 10.0 mi WSW 9.2 mph - N/A   Overcast
8:35 AM 48.7 °F - 42.1 °F 78% 29.92 in 10.0 mi West 10.4 mph - N/A   Overcast
8:55 AM 49.3 °F - 41.9 °F 76% 29.92 in 10.0 mi West 9.2 mph - N/A   Overcast
9:15 AM 49.6 °F - 41.5 °F 74% 29.92 in 10.0 mi WSW 10.4 mph - N/A   Overcast
9:35 AM 50.0 °F - 41.7 °F 73% 29.93 in 10.0 mi West 11.5 mph - N/A   Overcast
9:55 AM 50.9 °F - 42.1 °F 72% 29.93 in 10.0 mi West 10.4 mph - N/A   Overcast
10:15 AM 50.9 °F - 41.5 °F 70% 29.93 in 10.0 mi West 10.4 mph - N/A   Overcast
10:35 AM 51.3 °F - 41.7 °F 70% 29.93 in 10.0 mi WSW 10.4 mph - N/A   Mostly Cloudy
10:55 AM 51.8 °F - 41.5 °F 68% 29.93 in 10.0 mi WSW 10.4 mph - N/A   Mostly Cloudy
11:15 AM 52.5 °F - 41.5 °F 66% 29.93 in 10.0 mi West 9.2 mph - N/A   Mostly Cloudy
11:35 AM 52.7 °F - 41.5 °F 66% 29.93 in 10.0 mi WSW 10.4 mph - N/A   Mostly Cloudy
11:55 AM 53.1 °F - 41.4 °F 64% 29.92 in 10.0 mi WSW 8.1 mph - N/A   Overcast
12:15 PM 53.2 °F - 41.2 °F 64% 29.92 in 10.0 mi WSW 8.1 mph - N/A   Overcast
12:35 PM 53.8 °F - 40.8 °F 62% 29.91 in 10.0 mi WSW 10.4 mph 16.1 mph N/A   Overcast
12:55 PM 54.0 °F - 41.5 °F 63% 29.91 in 10.0 mi WSW 9.2 mph - N/A   Overcast
1:15 PM 53.6 °F - 40.6 °F 62% 29.91 in 10.0 mi WSW 9.2 mph - N/A   Overcast
1:35 PM 54.3 °F - 40.1 °F 59% 29.90 in 10.0 mi WSW 12.7 mph 16.1 mph N/A   Overcast
1:55 PM 54.7 °F - 39.7 °F 57% 29.90 in 10.0 mi WSW 10.4 mph - N/A   Overcast
2:15 PM 54.9 °F - 40.3 °F 58% 29.90 in 10.0 mi SW 12.7 mph - N/A   Overcast
2:35 PM 54.7 °F - 40.1 °F 58% 29.89 in 10.0 mi WSW 12.7 mph - N/A   Overcast
2:55 PM 55.4 °F - 40.5 °F 57% 29.89 in 10.0 mi WSW 11.5 mph 17.3 mph N/A   Overcast
3:15 PM 55.4 °F - 40.3 °F 57% 29.89 in 10.0 mi SW 12.7 mph - N/A   Overcast
3:35 PM 55.8 °F - 41.0 °F 58% 29.88 in 10.0 mi WSW 9.2 mph 17.3 mph N/A   Mostly Cloudy
3:55 PM 57.6 °F - 42.1 °F 56% 29.87 in 10.0 mi SW 13.8 mph - N/A   Mostly Cloudy
4:15 PM 58.5 °F - 42.3 °F 55% 29.85 in 10.0 mi SSW 12.7 mph 20.7 mph N/A   Scattered Clouds
4:35 PM 59.4 °F - 42.1 °F 53% 29.85 in 10.0 mi SW 17.3 mph 21.9 mph N/A   Scattered Clouds
4:55 PM 58.3 °F - 41.4 °F 53% 29.85 in 10.0 mi SW 12.7 mph - N/A   Mostly Cloudy
5:15 PM 59.7 °F - 42.4 °F 53% 29.85 in 10.0 mi SW 16.1 mph - N/A   Mostly Cloudy
5:35 PM 60.1 °F - 42.1 °F 51% 29.85 in 10.0 mi SW 13.8 mph 19.6 mph N/A   Scattered Clouds
5:55 PM 60.1 °F - 42.4 °F 52% 29.84 in 10.0 mi SW 10.4 mph 17.3 mph N/A   Scattered Clouds
6:15 PM 59.9 °F - 42.6 °F 53% 29.82 in 10.0 mi SW 9.2 mph 12.7 mph N/A   Clear
6:35 PM 59.2 °F - 42.6 °F 54% 29.82 in 10.0 mi SW 11.5 mph - N/A   Clear
6:55 PM 58.5 °F - 42.6 °F 56% 29.82 in 10.0 mi SSW 12.7 mph - N/A   Clear
7:15 PM 58.5 °F - 42.3 °F 55% 29.82 in 10.0 mi SW 11.5 mph - N/A   Clear
7:35 PM 57.2 °F - 42.8 °F 59% 29.82 in 10.0 mi SSW 8.1 mph - N/A   Clear
7:55 PM 56.3 °F - 42.4 °F 60% 29.82 in 10.0 mi SSW 9.2 mph - N/A   Clear
8:15 PM 56.1 °F - 41.5 °F 58% 29.82 in 10.0 mi South 9.2 mph - N/A   Clear
8:35 PM 55.8 °F - 41.7 °F 59% 29.82 in 10.0 mi South 9.2 mph - N/A   Clear
8:55 PM 55.8 °F - 41.9 °F 60% 29.81 in 10.0 mi South 10.4 mph - N/A   Scattered Clouds
9:15 PM 56.3 °F - 41.5 °F 58% 29.81 in 10.0 mi South 12.7 mph - N/A   Scattered Clouds
9:35 PM 56.5 °F - 41.4 °F 57% 29.82 in 10.0 mi South 11.5 mph 18.4 mph N/A   Mostly Cloudy
9:55 PM 56.5 °F - 41.2 °F 57% 29.82 in 10.0 mi South 11.5 mph - N/A   Overcast
10:15 PM 56.5 °F - 41.0 °F 56% 29.82 in 10.0 mi South 11.5 mph - N/A   Mostly Cloudy
10:35 PM 55.8 °F - 41.0 °F 58% 29.81 in 10.0 mi SSW 12.7 mph - N/A   Scattered Clouds
10:55 PM 55.2 °F - 40.6 °F 58% 29.80 in 10.0 mi South 11.5 mph 18.4 mph N/A   Clear
11:15 PM 54.7 °F - 40.8 °F 60% 29.80 in 10.0 mi South 12.7 mph - N/A   Scattered Clouds
11:35 PM 54.5 °F - 41.0 °F 60% 29.80 in 10.0 mi South 10.4 mph - N/A   Scattered Clouds
11:55 PM 54.7 °F - 41.0 °F 60% 29.79 in 10.0 mi SSW 10.4 mph - N/A   Scattered Clouds